NADEZHDA 3

Satellite information

Favourite Embed

Satellite Type and Status

PAYLOADIN ORBIT

Key statistics

Satellite NADEZHDA 3 at a glance.

Uptime

12647

Days in orbit

Revolutions

≈ 13.7

Per day

Orbit

LEO

Low Earth Orbit

Inclination

82.9

Latest

Satellite identification and parameters

Extended collection of information and parameters for NADEZHDA 3.

Object identification

Identified? True

Debris? False

Object name: NADEZHDA 3

International designator: 1991-019A

Object number (NORAD): 21152

Object ID (CCSDS): 21152

Country: COMMONWEALTH OF INDEPENDENT STATES (CIS)

Current information (Y/N): Y

RCS size: LARGE

Orbital parameters

Period: 104.767 minutes

Inclination: 82.9232 deg

SMA: 7361.683 km

Apoapsis: 1014.355 km

Periapsis: 952.741 km

RAAN: 117.5217 deg

Eccentricy: 0.0041848

Argument of periapsis: 11.3069 deg

Mean anomaly: 99.5439 deg

Mean motion: 13.74475713 rev/day

Mean motion (dot): 0.00000068 rev/day2

B* drag term: 0.000055991981 1/REarth

Two-line elements (TLE)

Creation date: Oct. 26, 2025, 2:54 a.m.

Reference frame: TEME

Reference center: EARTH

Epoch: Oct. 25, 2025, 11:56 p.m. UTC

TLE line 0: 0 NADEZHDA 3

TLE line 1: 1 21152U 91019A 25298.99783336 .00000068 00000-0 55992-4 0 9993

TLE line 2: 2 21152 82.9232 117.5217 0041848 11.3069 99.5439 13.74475713735981

Live tracking on map

Real-time ground track for satellite NADEZHDA 3.

In-orbit conjunctions

There are no conjunctions computed for NADEZHDA 3, at the moment. Check back to stay up to date, as we update our databases every day.

Go to all conjunctions

Associated space launch

Civilian navigation satellite equivalent to the purely military Parus

NADEZHDA 3 was lifted into orbit during the mission ‘Kosmos-3M | Nadezhda 6’, on board a Kosmos-3M space rocket.

The launch took place on March 12, 1991, 7:29 p.m. from 133/3 (133L).

For more information about the launch, click the button.

Launch to space Kosmos-3M | Nadezhda 6
Kosmos-3M | Nadezhda 6

Agency: N/A

Status: Launch Successful

Launch date: March 12, 1991, 7:29 p.m. UTC

Rocket: Kosmos-3M

Launch pad: 133/3 (133L)

Location: Plesetsk Cosmodrome, Russian Federation

...

Latest news about this satellite

There are no fresh news available about this satellite. Check back as we update our databases every day.


Newsletter sign-up

Weekly statistics, charts and insights to help you stay on top of the space industry.